sat.trackr.live / text

‹ back to catalog

STARLINK-35955

NORAD 66635 · 2025-271U

PAYLOAD ACTIVE UNKNOWN

§ Identity

Operator
Country
US
Launch date
2025-11-23
Launch site
AFWTR
Launch vehicle
Mass (kg)
RCS (m²)

Purposes: comms

External: N2YO · Heavens-Above · Gunter

§ Orbital elements

Epoch: 2026-09-20T04:17:50.802144Z

Period
93.85 min
Inclination
53.1598°
Eccentricity
0.0001051
Mean motion
15.34402262 rev/d
Perigee alt
462.0 km
Apogee alt
463.4 km
Semi-major
6,840.8 km
B*
4.5187e-4
RAAN
315.1539°
Arg perigee
88.2698°
Mean anomaly
271.8425°
Rev number
4,736

§ Raw data

STARLINK-359551 66635U 25271U   26263.17906021  .00014922  00000+0  45187-3 0  99932 66635  53.1598 315.1539 0001051  88.2698 271.8425 15.34402262 47362

JSON: /api/v1/satellites/66635 · /tle

For live sub-satellite position, see the globe view (requires WebGL).

§ Visibility from observer

Set your observer location to see the next 7 days of passes ≥ 10°. The values pass through the URL so the page stays shareable.

No JS? Fill the form by hand. The geolocation button needs JavaScript.